Location: Gro�sch�nbrunn
(49.5760°N, 11.8868°E)
Time: 11:43:40
(UTC+00:00)

Tiangong - Visible Passes

Search period start: 26 January 2022 00:00
Search period end: 05 February 2022 00:00
Orbit: 382 x 386 km, 41.5° (Epoch: 26 January)

Date Brightness Start Highest point End Pass type
(mag) Time Alt. Az. Time Alt. Az. Time Alt. Az.
29 Jan 3.5 18:01:58 10° SSW 18:03:26 14° S 18:03:26 14° S visible
30 Jan 3.7 17:03:07 10° S 17:04:16 12° SSE 17:05:25 10° SE visible
30 Jan 3.9 18:38:03 10° SW 18:38:44 13° SW 18:38:44 13° SW visible
31 Jan 3.2 17:38:32 10° SW 17:40:44 17° S 17:41:47 15° SSE visible
01 Feb 3.6 16:39:12 10° SSW 16:41:05 15° SSE 16:42:58 10° SE visible
01 Feb 3.2 18:14:55 10° SW 18:17:01 19° S 18:17:01 19° S visible
02 Feb 3.3 17:15:13 10° SW 17:17:33 19° S 17:19:53 10° SE visible
02 Feb 4.2 18:51:50 10° SW 18:52:14 12° SW 18:52:14 12° SW visible
03 Feb 3.4 17:51:49 10° SW 17:54:01 17° S 17:55:17 14° SSE visible
04 Feb 3.4 16:51:56 10° SW 16:54:16 19° S 16:56:36 10° SE visible
04 Feb 3.9 18:29:13 10° SW 18:30:22 12° SSW 18:30:33 11° SSW visible
